User: anonymous   Login
Location: Unspecified
(0.0000°N, 0.0000°E)
Time: 18:52:48
(UTC+00:00)
Language:

METEOR M2 - Orbit

View from above orbital plane
View from above orbital plane
View from above satellite
View from above satellite

Ground track
Ground track

The orbit data is extracted from the following two-line orbital elements,

1 40069U 14037A   19340.51086619 -.00000025  00000-0  78743-5 0  9999
2 40069  98.5300  20.1134 0006541 119.1473 241.0362 14.20667596280676
Epoch (UTC): 06 December 2019 12:15:38
Eccentricity: 0.0006541
inclination: 98.5300°
perigee height: 818 km
apogee height: 828 km
right ascension of ascending node: 20.1134°
argument of perigee: 119.1473°
revolutions per day: 14.20667596
mean anomaly at epoch: 241.0362°
orbit number at epoch: 28067

The dashed part of the orbit path shows where the satellite is in the earth's shadow,  

DLR